QPF
0.00 0.00 0.00 0.00 0.00 0.00 0.00 0.00 0.00 0.00 0.00 0.00 0.00 0.00 0.00 0.00 0.00 0.00 0.00 0.00 0.00 0.00 0.00 0.00 0.00 0.00 0.00 0.00 0.00 0.00 0.00 0.00 0.00 0.00 0.00 0.00 0.00 0.00 0.00 0.00 0.00 0.00 0.00 0.00 0.00
0.00 0.00 0.00 0.00 0.00 0.00 0.00 0.00 0.00 0.00 0.00 0.00 0.00 0.00 0.00 0.00 0.00 0.00 0.00 0.00 0.00 0.00 0.00 0.00 0.00 0.00 0.00 0.00 0.00 0.00 0.00 0.00 0.00 0.00 0.00 0.00 0.00 0.00 0.00 0.00 0.00 0.00 0.00 0.00 0.00
0.00 0.00 0.00 0.00 0.00 0.00 0.00 0.00 0.00 0.00 0.00 0.00 0.00 0.00 0.00 0.00 0.00 0.00 0.00 0.00 0.00 0.00 0.00 0.00 0.00 0.00 0.00 0.00 0.00 0.00 0.00 0.00 0.00 0.00 0.00 0.00 0.00 0.00 0.00 0.00 0.00 0.00 0.00 0.00 0.00
0.00 0.00 0.00 0.00 0.00 0.00 0.00 0.00 0.00 0.00 0.00 0.00 0.00 0.00 0.00 0.00 0.00 0.00 0.00 0.00 0.00 0.00 0.00 0.00 0.00 0.00 0.00 0.00 0.00 0.00 0.00 0.00 0.00 0.00 0.00 0.00 0.00 0.00 0.00 0.00 0.00 0.00 0.00 0.00 0.00
0.00 0.00 0.00 0.00 0.00 0.00 0.00 0.00 0.00 0.00 0.00 0.00 0.00 0.00 0.00 0.00 0.00 0.00 0.00 0.00 0.00 0.00 0.00 0.00 0.00 0.00 0.00 0.00 0.00 0.00 0.00 0.00 0.00 0.00 0.00 0.00 0.00 0.00 0.00 0.00 0.00 0.00 0.00 0.00 0.00
0.00 0.00 0.00 0.00 0.00 0.00 0.00 0.00 0.00 0.00 0.00 0.00 0.00 0.00 0.00 0.00 0.00 0.00 0.00 0.00 0.00 0.00 0.00 0.00 0.00 0.00 0.00 0.00 0.00 0.00 0.00 0.00 0.00 0.00 0.00 0.00 0.00 0.00 0.00 0.00 0.00 0.00 0.00 0.00 0.00
0.00 0.00 0.00 0.00 0.00 0.00 0.00 0.00 0.00 0.00 0.00 0.00 0.00 0.00 0.00 0.00 0.00 0.00 0.00 0.00 0.00 0.00 0.00 0.00 0.00 0.00 0.00 0.00 0.00 0.00 0.00 0.00 0.00 0.00 0.00 0.00 0.00 0.00 0.00 0.00 0.00 0.00 0.00 0.00 0.00
0.00 0.00 0.00 0.00 0.00 0.00 0.00 0.00 0.00 0.00 0.00 0.00 0.00 0.00 0.00 0.00 0.00 0.00 0.00 0.00 0.00 0.00 0.00 0.00 0.00 0.00 0.00 0.00 0.00 0.00 0.00 0.00 0.00 0.00 0.00 0.00 0.00 0.00 0.00 0.00 0.00 0.00 0.00 0.00 0.00
0.00 0.00 0.00 0.00 0.00 0.00 0.00 0.00 0.00 0.00 0.00 0.00 0.00 0.00 0.00 0.00 0.00 0.00 0.00 0.00 0.00 0.00 0.00 0.00 0.00 0.00 0.00 0.00 0.00 0.00 0.00 0.00 0.00 0.00 0.00 0.00 0.00 0.00 0.00 0.00 0.00 0.00 0.00 0.00 0.00
0.00 0.00 0.00 0.00 0.00 0.00 0.00 0.00 0.00 0.00 0.00 0.00 0.00 0.00 0.00 0.00 0.00 0.00 0.00 0.00 0.00 0.00 0.00 0.00 0.00 0.00 0.00 0.00 0.00 0.00 0.00 0.00 0.00 0.00 0.00 0.00 0.00 0.00 0.00 0.00 0.00 0.00 0.00 0.00 0.00
0.00 0.00 0.00 0.00 0.00 0.00 0.00 0.00 0.00 0.00 0.00 0.00 0.00 0.00 0.00 0.00 0.00 0.00 0.00 0.00 0.00 0.00 0.00 0.00 0.00 0.00 0.00 0.00 0.00 0.00 0.00 0.00 0.00 0.00 0.00 0.00 0.00 0.00 0.00 0.00 0.00 0.00 0.00 0.00 0.00
0.00 0.00 0.00 0.00 0.00 0.00 0.00 0.00 0.00 0.00 0.00 0.00 0.00 0.00 0.00 0.00 0.00 0.00 0.00 0.00 0.00 0.00 0.00 0.00 0.00 0.00 0.00 0.00 0.00 0.00 0.00 0.00 0.00 0.00 0.00 0.00 0.00 0.00 0.00 0.00 0.00 0.00 0.00 0.00 0.00
0.00 0.00 0.00 0.00 0.00 0.00 0.00 0.00 0.00 0.00 0.00 0.00 0.00 0.00 0.00 0.00 0.00 0.00 0.00 0.00 0.00 0.00 0.00 0.00 0.00 0.00 0.00 0.00 0.00 0.00 0.00 0.00 0.00 0.00 0.00 0.00 0.00 0.00 0.00 0.00 0.00 0.00 0.00 0.00 0.00
0.00 0.00 0.00 0.00 0.00 0.00 0.00 0.00 0.00 0.00 0.00 0.00 0.00 0.00 0.00 0.00 0.00 0.00 0.00 0.00 0.00 0.00 0.00 0.00 0.00 0.00 0.00 0.00 0.00 0.00 0.00 0.00 0.00 0.00 0.00 0.00 0.00 0.00 0.00 0.00 0.00 0.00 0.00 0.00 0.00
0.00 0.00 0.00 0.00 0.00 0.00 0.00 0.00 0.00 0.00 0.00 0.00 0.00 0.00 0.00 0.00 0.00 0.00 0.00 0.00 0.00 0.00 0.00 0.00 0.00 0.00 0.00 0.00 0.00 0.00 0.00 0.00 0.00 0.00 0.00 0.00 0.00 0.00 0.00 0.00 0.00 0.00 0.00 0.00 0.00
0.00 0.00 0.00 0.00 0.00 0.00 0.00 0.00 0.00 0.00 0.00 0.00 0.00 0.00 0.00 0.00 0.00 0.00 0.00 0.00 0.00 0.00 0.00 0.00 0.00 0.00 0.00 0.00 0.00 0.00 0.00 0.00 0.00 0.00 0.00 0.00 0.00 0.00 0.00 0.00 0.00 0.00 0.00 0.00 0.00
0.00 0.00 0.00 0.00 0.00 0.00 0.00 0.00 0.00 0.00 0.00 0.00 0.00 0.00 0.00 0.00 0.00 0.00 0.00 0.00 0.00 0.00 0.00 0.00 0.00 0.00 0.00 0.00 0.00 0.00 0.00 0.00 0.00 0.00 0.00 0.00 0.00 0.00 0.00 0.00 0.00 0.00 0.00 0.00 0.00
0.00 0.00 0.00 0.00 0.00 0.00 0.00 0.00 0.00 0.00 0.00 0.00 0.00 0.00 0.00 0.00 0.00 0.00 0.00 0.00 0.00 0.00 0.00 0.00 0.00 0.00 0.00 0.00 0.00 0.00 0.00 0.00 0.00 0.00 0.00 0.00 0.00 0.00 0.00 0.00 0.00 0.00 0.00 0.00 0.00
0.00 0.00 0.00 0.00 0.00 0.00 0.00 0.00 0.00 0.00 0.00 0.00 0.00 0.00 0.00 0.00 0.00 0.00 0.00 0.00 0.00 0.00 0.00 0.00 0.00 0.00 0.00 0.00 0.00 0.00 0.00 0.00 0.00 0.00 0.00 0.00 0.00 0.00 0.00 0.00 0.00 0.00 0.00 0.00 0.00
0.00 0.00 0.00 0.00 0.00 0.00 0.00 0.00 0.00 0.00 0.00 0.00 0.00 0.00 0.00 0.00 0.00 0.00 0.00 0.00 0.00 0.00 0.00 0.00 0.00 0.00 0.00 0.00 0.00 0.00 0.00 0.00 0.00 0.00 0.00 0.00 0.00 0.00 0.00 0.00 0.00 0.00 0.00 0.00 0.00
0.00 0.00 0.00 0.00 0.00 0.00 0.00 0.00 0.00 0.00 0.00 0.00 0.00 0.00 0.00 0.00 0.00 0.00 0.00 0.00 0.00 0.00 0.00 0.00 0.00 0.00 0.00 0.00 0.00 0.00 0.00 0.00 0.00 0.00 0.00 0.00 0.00 0.00 0.00 0.00 0.00 0.00 0.00 0.00 0.00
0.00 0.00 0.00 0.00 0.00 0.00 0.00 0.00 0.00 0.00 0.00 0.00 0.00 0.00 0.00 0.00 0.00 0.00 0.00 0.00 0.00 0.00 0.00 0.00 0.00 0.00 0.00 0.00 0.00 0.00 0.00 0.00 0.00 0.00 0.00 0.00 0.00 0.00 0.00 0.00 0.00 0.00 0.00 0.00 0.00
0.00 0.00 0.00 0.00 0.00 0.00 0.00 0.00 0.00 0.00 0.00 0.00 0.00 0.00 0.00 0.00 0.00 0.00 0.00 0.00 0.00 0.00 0.00 0.00 0.00 0.00 0.00 0.00 0.00 0.00 0.00 0.00 0.00 0.00 0.00 0.00 0.00 0.00 0.00 0.00 0.00 0.00 0.00 0.00 0.00
0.00 0.00 0.00 0.00 0.00 0.00 0.00 0.00 0.00 0.00 0.00 0.00 0.00 0.00 0.00 0.00 0.00 0.00 0.00 0.00 0.00 0.00 0.00 0.00 0.00 0.00 0.00 0.00 0.00 0.00 0.00 0.00 0.00 0.00 0.00 0.00 0.00 0.00 0.00 0.00 0.00 0.00 0.00 0.01 0.01
0.01 0.00 0.00 0.00 0.00 0.00 0.00 0.00 0.00 0.00 0.00 0.00 0.00 0.00 0.00 0.00 0.00 0.00 0.00 0.00 0.00 0.00 0.00 0.00 0.00 0.00 0.00 0.00 0.00 0.00 0.00 0.00 0.00 0.00 0.00 0.00 0.00 0.00 0.00 0.00 0.00 0.00 0.00 0.00 0.00
0.01 0.00 0.00 0.00 0.00 0.00 0.00 0.00 0.00 0.00 0.00 0.00 0.00 0.00 0.00 0.00 0.00 0.00 0.00 0.00 0.00 0.00 0.00 0.00 0.00 0.00 0.00 0.00 0.00 0.00 0.00 0.00 0.00 0.00 0.00 0.00 0.00 0.00 0.00 0.00 0.00 0.00 0.00 0.00 0.00
0.00 0.00 0.00 0.00 0.00 0.00 0.00 0.00 0.00 0.00 0.00 0.00 0.00 0.00 0.00 0.00 0.00 0.00 0.00 0.00 0.00 0.00 0.00 0.00 0.00 0.00 0.00 0.00 0.00 0.00 0.00 0.00 0.00 0.00 0.00 0.00 0.00 0.00 0.00 0.00 0.00 0.00 0.00 0.00 0.00
MSLP
1019.53 1019.18 1018.82 1018.44 1018.03 1017.64 1017.25 1016.83 1016.36 1015.90 1015.47 1015.07 1014.54 1014.27 1013.95 1013.51 1013.09 1012.89 1012.15 1010.61 1010.50 1010.30 1010.55 1010.93 1011.22 1011.40 1011.61 1012.07 1012.36 1013.02 1014.20 1014.23 1013.10 1012.20 1011.02 1010.22 1009.94 1009.12 1008.89 1008.71 1008.42 1008.13 1007.90 1007.48 1007.25
1019.66 1019.27 1018.91 1018.53 1018.14 1017.75 1017.34 1016.88 1016.41 1015.96 1015.49 1015.00 1014.47 1014.09 1013.79 1013.41 1013.21 1012.15 1010.44 1010.27 1010.34 1010.45 1010.79 1011.02 1011.26 1011.42 1011.87 1012.07 1012.47 1013.19 1014.14 1013.34 1012.24 1011.34 1010.95 1010.41 1010.12 1009.52 1009.25 1008.85 1008.63 1008.18 1007.56 1007.51 1007.54
1019.80 1019.41 1018.99 1018.58 1018.20 1017.76 1017.31 1016.84 1016.31 1015.83 1015.37 1014.92 1014.44 1014.04 1013.81 1013.42 1012.81 1010.83 1010.01 1010.18 1010.26 1010.54 1010.97 1011.18 1011.41 1011.82 1012.35 1012.50 1012.67 1013.03 1012.83 1012.04 1011.47 1010.90 1010.64 1010.33 1009.87 1009.49 1009.34 1008.75 1008.62 1008.48 1008.21 1008.16 1008.29
1019.82 1019.43 1019.02 1018.61 1018.14 1017.61 1017.15 1016.68 1016.23 1015.70 1015.28 1014.85 1014.37 1013.91 1013.50 1013.38 1012.28 1010.30 1010.14 1010.30 1010.45 1010.71 1011.11 1011.24 1011.49 1011.87 1012.28 1012.49 1012.32 1012.79 1012.40 1012.18 1011.59 1010.88 1010.91 1010.58 1009.88 1009.54 1009.23 1008.14 1008.22 1008.21 1008.08 1008.27 1008.48
1019.85 1019.49 1019.07 1018.58 1018.03 1017.47 1016.92 1016.39 1015.93 1015.43 1015.02 1014.72 1014.39 1013.97 1013.48 1012.91 1011.38 1010.20 1010.27 1010.42 1010.72 1011.07 1011.31 1011.48 1011.75 1011.99 1012.33 1012.39 1012.45 1012.54 1012.11 1011.69 1011.10 1010.86 1010.70 1010.32 1010.07 1009.86 1009.12 1008.52 1008.44 1008.43 1008.48 1008.24 1008.17
1019.73 1019.36 1018.93 1018.46 1017.93 1017.34 1016.65 1015.98 1015.41 1014.80 1014.49 1014.31 1014.15 1014.04 1013.77 1012.50 1010.49 1010.34 1010.54 1010.83 1010.97 1011.22 1011.38 1011.52 1011.51 1011.68 1012.01 1012.17 1012.43 1012.25 1012.10 1011.80 1011.33 1010.85 1010.68 1010.30 1009.79 1009.74 1007.97 1008.10 1008.25 1008.22 1008.40 1008.34 1008.20
1019.66 1019.27 1018.80 1018.34 1017.74 1017.07 1016.28 1015.58 1014.95 1014.13 1013.70 1013.70 1013.75 1013.84 1013.47 1011.57 1010.61 1010.62 1010.80 1010.90 1010.88 1011.03 1011.22 1011.35 1011.32 1011.59 1011.92 1012.11 1012.07 1012.08 1012.26 1011.80 1011.12 1010.63 1010.29 1009.96 1010.02 1009.52 1007.92 1008.35 1008.10 1007.96 1007.93 1007.87 1007.94
1019.69 1019.33 1018.92 1018.48 1017.89 1017.10 1016.11 1015.30 1014.63 1013.66 1013.14 1013.34 1013.51 1013.58 1012.47 1010.60 1010.44 1010.46 1010.52 1010.61 1010.71 1010.97 1011.10 1011.12 1011.24 1011.64 1012.01 1012.17 1012.46 1012.77 1012.80 1012.47 1011.27 1010.67 1010.22 1010.17 1009.92 1009.10 1008.70 1008.52 1008.46 1008.06 1007.76 1007.58 1007.20
1019.75 1019.48 1019.18 1018.69 1018.01 1017.01 1015.87 1014.78 1014.26 1013.83 1013.51 1013.42 1013.56 1013.30 1011.83 1010.34 1010.39 1010.29 1010.29 1010.49 1010.64 1010.76 1010.96 1011.01 1011.21 1011.97 1012.52 1013.17 1013.70 1013.83 1013.47 1012.92 1012.01 1010.91 1010.81 1010.78 1010.22 1009.48 1008.46 1008.64 1008.63 1008.44 1008.01 1007.66 1007.05
1019.62 1019.36 1019.07 1018.61 1017.99 1016.93 1015.60 1014.18 1013.95 1014.01 1013.91 1013.72 1013.45 1013.52 1011.66 1010.83 1010.56 1010.44 1010.34 1010.38 1010.50 1010.71 1011.16 1011.60 1012.46 1012.98 1013.75 1014.14 1014.24 1014.07 1014.06 1013.52 1012.76 1011.45 1010.92 1010.92 1010.39 1009.88 1009.13 1008.66 1008.61 1008.49 1007.75 1007.40 1007.02
1019.60 1019.38 1019.10 1018.69 1018.13 1017.11 1016.02 1014.57 1014.87 1014.54 1014.37 1014.21 1013.87 1013.18 1012.17 1011.32 1010.92 1010.59 1010.28 1010.42 1010.69 1011.22 1012.01 1012.38 1013.30 1013.50 1013.35 1013.65 1013.86 1013.98 1013.91 1013.54 1012.93 1012.08 1011.65 1011.03 1010.29 1010.14 1009.18 1008.77 1008.28 1007.72 1007.33 1006.77 1006.44
1019.41 1019.24 1018.94 1018.54 1018.13 1017.54 1016.94 1017.28 1017.73 1017.88 1016.18 1013.92 1013.46 1013.06 1012.13 1011.90 1011.50 1010.54 1010.29 1010.89 1011.42 1012.09 1012.62 1013.29 1013.28 1013.15 1013.54 1013.83 1014.04 1014.13 1013.90 1013.36 1012.55 1011.72 1011.53 1011.06 1009.90 1009.62 1009.34 1008.38 1007.73 1007.42 1006.92 1006.44 1006.02
1019.02 1018.96 1018.91 1018.60 1018.18 1017.90 1018.21 1018.40 1018.17 1018.13 1017.67 1014.00 1012.94 1012.05 1011.27 1011.42 1011.20 1010.61 1010.59 1011.02 1011.58 1012.27 1012.82 1013.34 1012.75 1012.72 1013.38 1013.56 1013.80 1013.69 1013.59 1013.00 1012.47 1011.82 1011.32 1011.17 1009.97 1009.62 1008.68 1008.27 1007.60 1007.53 1006.96 1006.27 1005.79
1018.69 1018.83 1018.88 1018.59 1018.39 1018.81 1018.44 1018.08 1018.00 1018.08 1017.58 1013.77 1012.19 1011.00 1010.88 1011.11 1010.95 1010.42 1010.47 1010.77 1011.51 1012.12 1012.72 1012.97 1012.38 1012.53 1012.93 1013.41 1013.39 1013.32 1012.43 1012.40 1012.36 1012.47 1012.32 1011.61 1010.96 1010.08 1009.23 1008.77 1008.71 1008.36 1007.67 1006.68 1005.58
1018.60 1018.87 1019.19 1019.18 1019.61 1019.28 1018.94 1018.45 1018.05 1018.14 1016.91 1012.92 1011.57 1010.84 1011.02 1011.61 1011.60 1011.45 1011.48 1011.30 1011.75 1011.98 1012.81 1013.08 1012.87 1012.86 1012.81 1012.63 1012.81 1012.79 1012.52 1012.33 1012.38 1012.66 1012.57 1012.30 1012.46 1009.93 1010.17 1009.84 1009.87 1009.71 1008.97 1007.63 1006.86
1018.09 1018.42 1018.75 1019.20 1019.53 1019.02 1018.75 1018.59 1018.64 1018.28 1015.56 1012.97 1011.99 1011.63 1012.02 1012.23 1012.45 1012.54 1012.66 1012.52 1012.99 1013.08 1013.28 1013.28 1013.23 1013.54 1013.64 1013.17 1012.90 1012.69 1013.14 1013.08 1012.93 1013.52 1013.59 1012.86 1012.93 1011.33 1011.70 1012.50 1011.77 1011.29 1010.41 1008.95 1007.40
1018.28 1018.54 1018.98 1018.96 1018.81 1018.46 1018.39 1018.82 1019.18 1017.45 1014.14 1013.27 1012.87 1012.70 1012.82 1013.33 1013.66 1013.82 1014.40 1014.78 1014.72 1014.70 1014.72 1014.72 1014.73 1014.39 1014.40 1014.34 1013.77 1013.72 1013.90 1014.82 1015.09 1014.79 1013.76 1013.23 1013.38 1012.35 1012.88 1013.23 1012.92 1012.33 1011.64 1010.44 1009.15
1017.73 1018.51 1018.87 1018.84 1018.87 1018.62 1018.89 1019.31 1019.24 1016.07 1015.00 1014.17 1013.77 1013.70 1013.97 1014.15 1014.55 1015.25 1015.74 1016.21 1016.46 1016.23 1016.48 1016.26 1016.24 1016.39 1015.98 1015.87 1015.74 1015.57 1015.93 1016.40 1016.79 1016.60 1015.15 1013.99 1013.49 1012.62 1013.19 1013.56 1013.60 1013.21 1012.68 1011.39 1010.32
1017.61 1018.45 1018.94 1018.50 1018.62 1018.78 1018.81 1018.95 1017.09 1015.99 1015.06 1014.71 1014.57 1014.67 1014.98 1015.16 1015.42 1015.85 1016.37 1017.06 1017.58 1017.54 1017.42 1017.54 1017.69 1017.66 1017.48 1017.18 1016.86 1016.99 1017.48 1018.12 1018.34 1018.19 1017.48 1015.04 1013.62 1013.33 1013.45 1013.62 1013.51 1013.30 1012.68 1012.15 1011.34
1017.71 1018.52 1018.62 1017.85 1018.37 1019.06 1019.12 1017.57 1016.49 1015.72 1015.53 1015.34 1015.27 1015.23 1015.66 1015.90 1016.43 1016.48 1016.72 1017.28 1017.64 1018.45 1018.21 1018.37 1018.62 1018.56 1018.48 1018.29 1018.22 1018.04 1018.41 1019.03 1019.66 1020.29 1019.46 1016.41 1014.92 1014.17 1014.40 1014.37 1014.09 1013.52 1013.35 1012.86 1012.31
1017.84 1018.77 1018.62 1018.27 1018.16 1018.80 1018.26 1017.13 1016.11 1015.52 1015.50 1015.93 1015.46 1015.36 1015.74 1016.47 1016.79 1017.02 1017.03 1017.36 1017.41 1018.14 1018.95 1019.14 1019.27 1019.77 1019.34 1019.71 1020.02 1019.90 1019.91 1020.33 1020.89 1021.43 1021.25 1019.53 1016.31 1015.26 1015.33 1014.91 1014.49 1014.18 1013.81 1013.43 1012.83
1017.66 1018.54 1018.69 1018.47 1019.23 1019.21 1018.51 1017.25 1016.17 1015.47 1015.77 1015.97 1016.00 1015.64 1015.90 1016.57 1017.46 1017.55 1017.17 1017.19 1018.00 1017.85 1019.16 1019.73 1020.66 1020.98 1020.78 1020.61 1021.05 1021.37 1021.78 1022.29 1022.87 1023.40 1023.07 1021.95 1017.59 1015.93 1015.66 1015.48 1014.66 1013.98 1013.57 1013.55 1013.01
1017.85 1018.63 1018.86 1018.49 1018.90 1018.81 1018.26 1017.39 1016.85 1016.11 1015.98 1016.07 1016.23 1016.18 1016.77 1017.40 1017.81 1017.76 1018.28 1018.24 1018.52 1018.50 1019.07 1019.85 1021.22 1021.91 1022.15 1021.74 1021.70 1022.15 1022.84 1023.29 1024.10 1024.20 1023.55 1022.73 1018.01 1016.66 1016.13 1015.72 1015.24 1014.70 1013.71 1013.27 1012.62
1018.07 1019.28 1019.63 1019.43 1019.05 1018.77 1018.40 1017.57 1017.04 1017.05 1017.18 1017.34 1017.17 1017.59 1017.46 1017.44 1017.69 1018.31 1018.61 1019.37 1019.14 1019.36 1019.53 1020.05 1021.50 1021.81 1022.38 1022.32 1022.58 1022.96 1023.35 1023.67 1024.43 1024.78 1023.48 1021.70 1019.02 1018.37 1017.27 1015.92 1015.14 1014.64 1013.99 1013.29 1012.65
1017.91 1018.48 1019.35 1019.71 1019.28 1019.13 1018.94 1018.60 1017.79 1017.75 1017.89 1018.18 1018.45 1017.65 1017.87 1018.00 1018.42 1018.38 1018.67 1018.90 1019.60 1019.75 1020.59 1021.04 1022.06 1022.64 1022.93 1022.77 1022.77 1022.71 1022.78 1023.22 1023.83 1023.07 1022.86 1020.74 1019.56 1017.93 1017.02 1015.89 1014.89 1014.46 1013.83 1013.26 1012.69
1018.29 1018.59 1019.34 1019.41 1018.94 1019.39 1019.05 1018.43 1018.42 1018.24 1017.76 1017.75 1017.76 1017.61 1017.77 1018.08 1017.90 1018.46 1018.92 1018.86 1019.32 1020.52 1021.44 1022.10 1023.10 1023.66 1023.77 1023.37 1023.00 1022.47 1021.62 1021.67 1021.70 1021.41 1021.22 1020.01 1018.66 1016.85 1015.95 1015.13 1014.44 1014.10 1013.66 1013.03 1012.29
1018.56 1018.73 1018.81 1018.94 1019.13 1019.05 1018.28 1017.53 1017.31 1017.40 1017.40 1016.70 1017.09 1017.93 1018.30 1018.41 1018.35 1018.37 1018.62 1019.05 1019.33 1020.76 1021.97 1022.99 1024.05 1024.88 1024.74 1024.34 1023.72 1022.18 1020.50 1020.18 1020.13 1019.95 1019.62 1018.81 1017.14 1016.22 1015.41 1014.50 1013.67 1013.16 1012.78 1012.38 1011.95
Thickness
5718 5721 5724 5727 5730 5732 5736 5739 5742 5746 5749 5751 5754 5755 5756 5760 5762 5761 5761 5775 5775 5774 5770 5764 5758 5753 5750 5742 5743 5734 5702 5694 5714 5719 5730 5743 5736 5750 5753 5748 5750 5755 5756 5764 5771
5715 5719 5722 5724 5727 5730 5733 5737 5740 5743 5746 5749 5752 5754 5755 5756 5756 5759 5777 5776 5773 5769 5762 5754 5748 5748 5736 5738 5732 5718 5694 5704 5722 5734 5730 5735 5734 5738 5738 5737 5741 5747 5760 5764 5765
5713 5716 5719 5722 5724 5727 5731 5734 5738 5741 5744 5746 5749 5751 5751 5753 5754 5764 5774 5771 5768 5764 5759 5753 5746 5738 5726 5728 5723 5714 5706 5720 5728 5732 5734 5732 5732 5740 5734 5731 5736 5738 5743 5749 5751
5710 5713 5716 5719 5722 5725 5728 5732 5735 5738 5741 5742 5745 5747 5749 5748 5738 5765 5768 5764 5761 5757 5751 5744 5738 5727 5719 5714 5722 5711 5716 5717 5723 5728 5723 5721 5733 5729 5729 5744 5745 5740 5746 5745 5743
5706 5709 5712 5715 5719 5723 5727 5730 5733 5736 5738 5739 5740 5741 5744 5740 5743 5763 5760 5757 5753 5747 5739 5733 5725 5721 5710 5711 5712 5707 5714 5720 5722 5721 5717 5717 5715 5718 5727 5732 5731 5734 5734 5735 5737
5703 5706 5708 5712 5716 5719 5724 5728 5732 5736 5737 5737 5736 5734 5733 5727 5756 5755 5752 5748 5743 5738 5732 5729 5724 5722 5714 5709 5704 5710 5709 5709 5712 5713 5712 5711 5713 5712 5737 5729 5724 5725 5723 5724 5726
5699 5702 5705 5708 5712 5716 5722 5726 5730 5735 5737 5735 5732 5729 5725 5730 5748 5745 5743 5739 5737 5732 5724 5725 5725 5716 5711 5702 5710 5708 5695 5697 5703 5706 5706 5708 5699 5704 5725 5718 5716 5718 5718 5718 5717
5693 5695 5697 5700 5704 5708 5715 5720 5725 5731 5733 5730 5727 5723 5719 5743 5743 5741 5739 5733 5731 5726 5722 5722 5719 5708 5702 5703 5692 5685 5681 5671 5693 5698 5700 5698 5680 5700 5705 5705 5701 5705 5709 5712 5714
5686 5687 5688 5691 5695 5701 5709 5717 5719 5720 5721 5720 5718 5715 5716 5739 5732 5735 5734 5724 5722 5720 5717 5718 5711 5695 5690 5672 5659 5660 5651 5660 5669 5687 5683 5680 5673 5689 5696 5693 5688 5690 5694 5698 5705
5680 5681 5682 5684 5688 5694 5703 5713 5712 5709 5709 5709 5710 5705 5719 5718 5723 5724 5725 5721 5713 5709 5701 5694 5678 5669 5658 5649 5638 5643 5640 5644 5649 5668 5671 5661 5663 5668 5677 5675 5672 5677 5685 5688 5692
5672 5673 5674 5675 5678 5684 5692 5700 5691 5696 5694 5696 5695 5696 5701 5712 5715 5712 5715 5709 5703 5692 5672 5675 5657 5648 5653 5647 5648 5644 5638 5635 5641 5650 5647 5651 5655 5652 5661 5659 5664 5679 5679 5684 5683
5665 5665 5665 5667 5668 5671 5674 5668 5663 5660 5663 5685 5687 5688 5695 5697 5691 5702 5704 5687 5679 5663 5662 5652 5640 5649 5646 5639 5631 5624 5620 5621 5634 5640 5633 5633 5651 5647 5649 5656 5663 5667 5674 5675 5677
5658 5657 5655 5655 5656 5656 5651 5647 5647 5646 5636 5674 5684 5688 5695 5691 5684 5688 5691 5678 5665 5653 5644 5633 5644 5647 5634 5625 5618 5613 5607 5612 5615 5626 5626 5617 5631 5636 5648 5647 5652 5652 5654 5668 5672
5653 5650 5647 5648 5647 5640 5643 5642 5640 5637 5627 5666 5676 5684 5685 5683 5674 5686 5684 5672 5657 5644 5637 5629 5639 5632 5621 5611 5610 5598 5609 5610 5609 5602 5588 5603 5583 5625 5631 5634 5636 5637 5646 5654 5664
5643 5638 5633 5630 5623 5625 5629 5630 5632 5625 5612 5662 5664 5677 5671 5660 5658 5660 5660 5656 5639 5636 5630 5618 5620 5615 5607 5607 5604 5599 5605 5599 5603 5592 5586 5589 5571 5612 5612 5619 5619 5619 5626 5641 5648
5638 5634 5630 5623 5617 5618 5618 5618 5614 5608 5609 5643 5649 5645 5643 5640 5636 5634 5630 5629 5622 5614 5608 5607 5607 5596 5590 5592 5588 5592 5589 5583 5583 5573 5557 5578 5566 5595 5590 5578 5592 5598 5607 5624 5639
5624 5621 5615 5614 5613 5613 5613 5605 5592 5592 5634 5629 5626 5625 5619 5613 5615 5607 5596 5586 5589 5590 5579 5579 5576 5576 5575 5569 5572 5569 5571 5539 5538 5542 5557 5571 5562 5587 5569 5569 5574 5583 5589 5603 5617
5620 5609 5604 5599 5597 5596 5592 5587 5573 5606 5607 5610 5606 5602 5597 5594 5591 5583 5573 5566 5563 5561 5548 5553 5553 5543 5549 5547 5542 5542 5540 5530 5520 5527 5539 5558 5550 5574 5564 5559 5565 5571 5576 5589 5602
5607 5600 5593 5592 5587 5583 5581 5571 5585 5591 5601 5593 5586 5575 5574 5572 5568 5563 5557 5546 5538 5536 5543 5527 5531 5529 5527 5526 5531 5523 5504 5516 5498 5500 5494 5531 5557 5548 5556 5553 5554 5560 5567 5572 5583
5591 5584 5582 5581 5571 5562 5552 5576 5578 5585 5576 5572 5566 5562 5551 5549 5546 5543 5539 5531 5525 5521 5518 5507 5510 5505 5510 5514 5511 5508 5506 5496 5485 5462 5483 5520 5536 5544 5532 5536 5541 5546 5548 5555 5565
5572 5564 5567 5563 5556 5544 5538 5553 5568 5570 5562 5549 5551 5546 5540 5529 5527 5524 5520 5514 5517 5509 5501 5495 5494 5488 5490 5481 5476 5474 5471 5476 5470 5459 5450 5481 5514 5519 5512 5518 5525 5531 5533 5539 5547
5557 5558 5548 5543 5527 5520 5527 5542 5552 5548 5541 5534 5529 5533 5526 5518 5504 5506 5506 5506 5497 5499 5486 5478 5453 5452 5461 5462 5459 5461 5450 5444 5425 5415 5405 5408 5465 5491 5485 5493 5502 5512 5520 5523 5533
5535 5524 5522 5522 5510 5504 5510 5518 5522 5525 5523 5519 5516 5514 5499 5498 5489 5490 5483 5480 5477 5477 5469 5466 5437 5436 5435 5446 5446 5437 5432 5429 5403 5396 5394 5378 5443 5461 5462 5466 5473 5481 5499 5509 5520
5509 5499 5488 5489 5488 5488 5495 5502 5504 5491 5490 5488 5485 5480 5480 5476 5470 5460 5465 5456 5462 5461 5468 5458 5429 5432 5430 5432 5412 5399 5405 5399 5380 5346 5366 5397 5412 5423 5429 5438 5450 5462 5475 5489 5500
5491 5481 5473 5462 5467 5465 5464 5463 5474 5465 5457 5454 5452 5467 5466 5449 5451 5452 5451 5447 5443 5450 5437 5435 5421 5417 5414 5417 5415 5414 5410 5393 5354 5376 5349 5390 5382 5405 5414 5425 5435 5447 5459 5475 5488
5471 5461 5449 5444 5447 5442 5443 5453 5452 5450 5446 5446 5448 5457 5453 5442 5448 5439 5435 5437 5434 5424 5418 5407 5401 5399 5396 5401 5399 5400 5405 5396 5389 5385 5375 5378 5383 5408 5411 5420 5427 5430 5446 5461 5478
5441 5438 5439 5441 5433 5431 5433 5443 5445 5447 5442 5451 5446 5433 5423 5426 5436 5431 5428 5423 5425 5412 5400 5392 5383 5369 5359 5376 5375 5373 5394 5394 5392 5385 5384 5379 5402 5404 5403 5412 5422 5433 5437 5452 5468